Location: Lombard
(41.8800°N, 88.0080°W)
Time: 23:35:17
(UTC-05:00)

Tiros 1 - Pass Details

Date: 01 February 2023
Orbit: 628 x 662 km, 48.4° (Epoch: 20 March)

Event Time Altitude Azimuth Distance (km) Brightness Sun altitude
Rises 22:58:34 0° 190° (S) 2,893 - -61.2°
Reaches altitude 10° 23:01:44 10° 167° (SSE) 1,992 - -61.5°
Maximum altitude 23:04:20 15° 132° (SE) 1,684 - -61.8°
Drops below altitude 10° 23:06:58 10° 97° (E) 2,005 - -62.0°
Sets 23:10:09 0° 75° (ENE) 2,922 - -62.3°
